Wind_Speed
40 37 36 42 46 47 46 46 46 45 44 41 39 37 35 34 34 36 38 37 38 35 32 35 32 28 30 33 35 37 40 43 45 45 42 43 43 44 44 43 44 44 45 47 46 45 44 44 43 42 43 42 41 39 38 37 36 36 36 38 40 41 41 42 42 43 44 45 45 45 44 45 45 45 45 46 46 46 48 52 56 59 61 61 60 59
39 38 40 46 47 45 46 49 49 48 48 46 44 42 38 37 37 38 40 40 40 36 32 35 33 30 30 32 34 35 38 43 47 46 43 43 45 47 47 45 46 47 47 48 48 47 45 45 46 45 44 44 44 42 41 40 40 39 38 38 40 41 42 43 44 44 45 46 46 45 45 45 45 45 47 48 48 48 48 49 51 54 57 60 62 62
39 39 45 49 48 45 47 50 51 51 49 48 48 46 43 44 43 41 43 44 43 40 37 36 33 31 32 32 31 32 37 43 45 46 44 42 44 49 50 49 49 49 49 50 51 50 49 48 49 49 49 48 47 45 45 45 44 44 44 43 42 42 42 43 45 47 48 48 47 47 47 47 46 47 47 48 49 50 50 50 50 50 52 54 57 61
41 44 49 51 50 50 50 53 54 53 52 51 50 48 47 49 49 45 46 47 46 43 42 39 34 32 32 33 34 33 37 43 44 45 46 44 44 48 50 52 51 52 52 53 55 56 54 53 53 53 53 53 52 50 49 49 49 49 49 48 47 46 46 46 46 47 49 50 50 49 49 49 48 49 49 50 51 52 51 51 50 51 51 51 52 55
47 50 53 53 54 55 55 57 58 55 53 52 53 53 51 52 52 50 50 50 49 48 47 44 40 35 34 35 37 37 38 41 44 46 47 47 47 49 51 52 52 54 54 54 57 59 57 56 55 55 55 55 56 55 54 53 52 53 53 53 52 51 51 50 50 50 50 50 51 52 53 52 52 51 51 51 53 54 53 52 52 51 51 52 53 54
52 56 57 56 57 58 58 58 60 58 55 54 57 59 57 55 53 52 52 50 49 50 50 50 46 39 36 37 39 41 41 41 43 47 49 50 51 53 54 54 54 55 56 56 58 58 57 56 55 56 55 54 55 56 56 55 55 57 58 57 56 55 55 55 55 54 54 53 53 53 54 55 55 55 55 55 55 55 55 55 54 53 53 54 55 55
56 61 61 60 60 60 58 59 62 61 58 57 59 62 62 59 58 57 56 54 51 49 49 51 50 44 39 39 41 42 45 45 44 46 49 52 54 55 57 57 57 58 58 58 59 58 57 56 55 56 56 55 55 56 56 55 56 57 58 59 58 58 58 58 58 58 58 57 57 56 55 55 56 56 57 57 57 56 56 56 56 56 57 57 57 57
62 65 66 66 65 65 66 68 71 70 67 64 65 66 66 65 64 62 62 60 57 53 49 48 51 48 39 39 43 43 44 47 48 49 50 52 53 55 58 58 59 60 60 60 60 58 58 59 60 60 62 62 61 60 59 59 60 60 60 61 61 61 61 60 60 60 61 61 60 59 58 57 57 57 58 58 58 58 57 57 57 58 59 60 60 59
67 69 70 72 72 74 77 81 83 82 80 79 78 76 75 74 73 70 68 66 64 60 53 50 57 53 39 37 43 43 44 46 48 51 54 55 56 58 60 60 60 61 62 64 64 64 63 63 64 64 65 68 68 67 66 65 65 65 65 66 66 65 65 64 62 62 62 62 61 61 60 60 59 59 59 59 59 59 59 58 58 59 60 61 62 62
70 71 72 74 76 79 82 85 86 87 87 88 88 86 85 84 82 80 77 74 73 66 58 59 67 61 43 37 44 47 49 51 51 55 59 60 62 63 64 65 65 66 66 68 70 71 70 68 68 68 67 70 72 74 75 75 74 72 71 70 70 70 69 68 66 65 65 64 63 63 62 62 61 61 61 61 61 61 61 61 60 60 60 61 62 64
72 72 73 75 79 81 83 86 88 89 91 92 92 90 90 90 88 87 83 81 80 73 68 70 75 71 50 37 48 56 60 62 61 64 68 69 70 71 72 71 71 71 71 70 71 73 73 73 73 73 72 72 73 75 77 78 79 79 78 76 74 73 72 72 70 69 69 69 68 68 67 65 65 64 64 64 64 64 64 64 63 63 62 62 62 63
75 75 76 78 81 83 84 87 89 91 92 93 94 93 93 93 91 91 89 89 89 81 77 77 79 79 58 42 52 62 66 73 73 74 77 79 80 81 81 79 77 76 74 72 73 73 75 77 77 77 77 77 77 78 79 79 80 81 83 83 81 80 78 77 76 75 74 74 73 73 72 71 70 69 69 69 69 69 68 67 67 66 65 64 64 64
78 78 79 80 82 84 85 88 89 91 92 93 94 94 95 95 94 95 95 96 96 89 85 86 86 83 64 53 62 67 71 79 82 83 85 85 85 86 86 86 85 84 81 78 78 78 79 80 82 82 82 82 82 84 85 84 84 83 83 84 85 86 85 83 82 81 80 79 79 78 78 77 75 74 75 75 75 75 75 73 72 70 70 69 68 67
78 78 79 82 84 84 85 88 90 91 92 92 94 96 97 97 97 100 101 101 100 96 94 94 94 87 73 68 75 78 80 84 86 90 92 92 93 94 93 92 93 94 93 91 91 91 90 90 90 90 89 87 88 90 92 92 91 89 87 86 85 87 89 90 89 88 87 85 84 83 83 83 82 81 80 80 80 80 80 79 77 76 75 74 74 72
82 80 79 83 87 86 86 90 92 93 94 94 95 97 99 99 102 105 105 104 103 102 102 101 100 96 87 82 84 86 88 89 92 95 96 98 101 102 102 101 101 102 102 102 103 104 105 104 104 103 101 98 95 96 98 99 97 94 92 91 90 90 90 92 93 93 92 90 88 86 86 86 87 87 87 86 86 85 85 84 82 81 80 80 80 79
89 85 81 84 89 89 89 91 93 96 97 97 97 99 100 102 107 109 109 108 108 109 109 107 105 103 99 95 92 92 94 97 100 101 102 104 106 109 110 109 109 110 110 111 112 112 113 113 113 112 111 109 106 104 104 104 103 100 97 96 96 96 95 94 94 95 95 94 93 91 89 88 88 89 90 91 91 91 90 89 88 86 85 84 84 84
96 92 87 86 90 92 93 93 94 96 98 99 99 100 103 106 109 111 112 113 113 115 114 111 109 108 106 105 100 97 97 101 106 109 111 112 113 115 115 114 114 116 117 118 118 118 119 118 118 117 115 114 112 110 110 109 108 106 104 102 101 100 100 99 98 98 98 98 98 97 96 94 92 91 92 92 93 94 95 95 94 93 91 90 89 88
102 100 94 91 93 96 97 96 96 97 98 101 102 103 104 107 109 111 114 116 116 117 117 114 113 111 111 111 106 102 103 107 111 114 116 118 120 120 119 118 118 119 121 122 122 122 122 122 121 120 119 117 115 113 113 113 113 112 110 108 107 105 103 102 102 101 101 101 101 102 102 100 99 97 97 97 97 97 99 100 100 99 97 96 94 92
106 106 102 97 97 100 103 102 100 100 102 105 107 107 107 107 109 111 115 117 117 119 120 119 118 117 116 115 112 110 112 115 118 120 121 123 124 124 124 123 122 122 124 126 125 124 124 123 122 121 120 120 118 116 115 115 116 116 115 112 110 108 106 105 104 104 104 103 104 105 106 106 105 104 104 104 105 104 104 105 105 105 104 102 100 98
110 112 111 106 104 106 109 108 105 105 107 110 111 111 111 111 112 114 117 119 121 123 125 126 127 126 124 122 122 122 123 124 125 125 125 126 127 127 127 127 126 126 127 128 128 126 124 123 122 120 119 119 119 118 117 117 117 118 118 115 112 109 108 108 107 106 106 106 107 109 111 112 112 111 110 110 110 111 111 111 111 110 109 108 106 104
115 117 118 116 113 114 114 112 111 111 112 115 116 116 116 116 117 119 121 123 125 127 131 134 136 136 134 132 133 133 132 132 131 129 128 128 128 128 128 129 129 129 128 129 128 126 124 122 121 119 117 117 117 118 118 119 119 118 118 116 114 111 109 108 109 110 110 110 111 112 114 116 116 116 114 112 112 112 113 115 116 116 115 113 111 109
119 121 122 122 121 119 117 116 117 118 119 120 121 121 120 121 123 125 127 129 130 133 137 142 144 144 142 140 140 139 139 137 136 134 132 130 129 128 128 128 127 126 125 125 124 124 122 121 120 118 116 115 115 116 117 118 118 117 116 114 113 112 110 109 109 110 112 114 115 116 117 118 119 119 116 114 113 113 114 116 119 121 120 119 117 115
122 124 125 126 126 125 123 122 122 124 125 126 127 128 127 128 130 133 135 137 138 141 144 147 149 149 147 144 143 143 142 141 139 137 135 133 130 128 125 124 122 120 119 119 119 119 118 118 117 116 116 115 115 115 115 115 115 115 113 111 111 111 110 110 109 110 112 114 117 119 120 120 120 120 118 115 113 113 114 116 119 122 123 122 122 121
126 127 129 131 131 131 130 129 129 130 131 133 134 135 136 137 138 139 142 144 146 148 150 150 152 151 148 145 144 143 141 139 138 136 133 131 128 125 121 117 114 113 112 112 113 113 114 114 113 113 113 113 114 114 114 113 113 112 111 109 108 109 109 108 108 109 110 112 115 118 120 121 120 119 117 116 114 113 114 115 117 120 123 124 124 123
130 132 135 136 137 137 136 135 135 136 138 140 141 143 143 143 144 145 146 149 152 153 153 153 152 149 145 142 140 138 135 134 133 131 130 128 126 123 118 113 109 106 106 106 107 108 109 109 109 110 110 110 111 112 113 113 112 111 111 109 107 107 108 108 107 107 108 109 110 112 114 117 118 118 117 116 116 115 115 116 117 118 120 123 124 124
138 139 141 142 143 143 141 140 139 140 141 144 145 146 146 146 148 149 151 153 154 153 152 150 146 142 138 136 134 133 131 129 128 126 125 123 122 120 116 113 108 105 103 103 103 104 104 105 105 106 107 108 109 110 111 112 112 112 112 111 109 108 109 110 111 110 110 110 110 111 111 113 115 117 118 118 118 117 117 118 118 118 118 120 122 123
144 145 146 146 146 147 146 145 144 144 146 148 149 149 150 150 151 152 151 151 148 146 144 141 137 134 133 131 130 129 128 125 123 122 120 119 118 116 114 112 109 106 103 102 101 101 101 101 102 103 105 106 107 109 110 111 112 113 113 113 112 111 111 113 114 115 114 113 112 113 113 114 115 116 117 118 118 118 118 118 119 119 118 118 119 120
147 148 149 149 149 150 150 150 150 150 151 151 151 150 150 149 148 146 142 139 137 138 137 133 130 131 130 127 125 123 122 121 119 118 116 115 113 113 112 111 109 107 104 102 101 100 100 100 100 101 103 104 105 107 108 109 111 112 112 113 113 113 113 113 115 116 116 116 115 114 114 115 115 115 115 115 116 117 117 117 118 119 119 118 117 117
151 151 152 152 152 153 152 150 150 149 149 148 146 144 142 139 137 134 131 129 130 133 132 129 127 128 126 123 120 118 116 116 115 113 112 111 110 109 109 108 107 106 104 103 101 100 99 99 99 100 101 102 103 105 106 107 108 109 110 111 112 112 113 113 113 114 115 116 115 115 114 114 114 114 113 113 113 114 115 116 117 118 119 119 118 117
152 151 151 150 149 148 147 144 143 143 142 140 137 134 131 127 125 124 124 125 126 129 128 127 126 124 122 120 118 116 114 113 112 111 110 109 108 107 105 104 104 103 102 101 100 99 99 98 98 98 99 99 100 101 103 104 105 107 108 108 109 109 110 110 111 112 113 113 113 113 112 111 112 112 111 111 111 111 112 113 115 117 118 119 119 118
147 145 144 143 143 141 137 135 135 136 135 132 129 125 121 118 118 120 121 122 123 125 125 124 124 121 118 117 117 116 114 112 111 109 108 107 106 105 103 102 101 101 100 99 98 97 97 97 97 97 97 97 97 98 99 100 101 103 104 105 106 106 106 107 107 108 109 110 110 110 109 109 109 108 108 108 108 108 109 110 112 115 117 119 119 119
139 138 137 137 137 134 129 128 130 130 129 127 121 116 115 116 117 119 119 119 120 120 119 119 120 119 118 117 116 115 113 112 110 109 108 106 105 103 102 101 100 99 98 97 97 96 95 95 95 95 95 96 95 96 96 97 98 100 101 102 103 104 104 104 105 105 106 107 108 108 108 107 107 106 107 106 107 107 108 109 110 112 114 116 118 119
133 133 133 133 133 129 124 124 126 127 126 119 112 111 114 116 116 116 116 117 117 116 116 115 115 116 116 116 115 114 113 111 110 109 107 106 105 103 102 100 99 98 98 97 97 97 96 95 95 95 95 95 96 96 96 96 97 98 99 99 100 102 102 103 103 104 104 105 106 107 107 107 106 106 106 107 107 107 108 109 110 111 112 114 115 117
129 129 129 130 130 126 122 121 124 126 121 112 108 111 114 113 113 114 114 113 113 113 112 112 112 113 113 113 113 113 111 110 109 108 107 106 104 103 102 101 100 99 98 98 98 98 98 97 96 95 95 95 96 96 96 96 97 97 98 98 99 100 101 101 102 103 103 103 104 105 107 107 107 107 107 107 108 108 109 109 110 111 112 113 113 115
126 127 127 127 127 124 121 120 123 122 114 109 108 109 108 109 111 113 112 110 108 109 109 110 111 112 112 111 111 111 110 108 107 107 106 105 104 103 102 101 100 99 99 98 98 98 98 98 97 96 96 96 96 97 97 97 97 97 98 98 98 99 99 100 100 101 102 102 103 104 106 107 108 109 108 108 109 110 110 111 111 111 112 113 113 114
125 125 124 123 123 122 119 118 119 115 109 106 105 103 103 106 109 109 108 106 104 105 107 109 110 111 110 110 109 109 108 107 105 105 105 104 104 103 102 101 100 100 99 98 98 98 98 98 98 98 98 98 98 98 98 98 97 97 98 99 99 99 99 99 100 100 100 101 101 103 105 106 108 108 109 109 109 110 111 112 112 112 112 112 113 114
122 121 120 119 117 115 114 113 112 110 107 103 101 101 103 105 105 105 105 102 101 103 106 108 109 109 109 109 109 108 107 105 103 103 104 104 104 103 103 102 101 101 100 100 100 100 100 100 99 99 99 99 99 100 100 99 98 98 98 99 100 101 100 100 100 100 100 100 100 101 103 105 107 107 108 109 109 110 111 112 113 113 113 112 112 113
116 116 115 115 113 110 110 109 107 105 104 101 100 101 103 103 103 103 103 101 100 102 105 107 108 108 108 108 108 107 105 104 102 102 103 105 104 104 103 103 103 103 102 103 103 103 103 102 101 100 99 99 100 101 102 101 100 99 98 99 100 101 102 102 102 101 100 100 101 101 102 104 106 107 107 108 109 110 110 112 113 113 113 113 112 112
109 110 110 112 111 108 108 108 105 102 101 100 100 100 101 101 101 102 103 101 98 101 105 106 106 106 107 106 105 104 104 103 101 101 103 105 105 105 105 104 104 104 104 104 105 105 104 104 103 101 100 100 101 101 102 101 101 100 100 100 101 101 101 102 102 101 101 101 102 102 102 104 105 106 107 108 109 110 111 112 113 114 114 113 113 112
106 106 108 109 109 107 108 107 104 102 101 101 102 102 100 99 99 101 102 100 98 101 104 104 103 104 105 104 103 102 102 102 101 100 102 104 106 106 106 105 104 104 105 105 105 105 104 103 102 101 101 101 102 102 102 101 100 100 101 102 102 103 103 103 101 100 101 101 102 103 103 104 104 105 106 107 108 109 111 112 114 115 116 115 114 113
103 105 106 107 106 105 105 105 103 101 99 100 103 103 100 99 100 100 100 100 101 102 101 100 101 101 101 101 101 101 101 101 101 101 101 103 104 104 105 105 105 104 104 105 105 105 104 103 101 101 101 102 103 103 103 103 101 100 100 101 102 104 105 104 102 101 101 101 102 103 104 104 104 104 105 106 107 108 109 111 113 115 116 117 116 115
102 103 103 102 102 102 101 101 100 97 95 97 102 102 101 101 101 100 99 100 100 99 98 98 98 97 97 99 100 100 100 100 100 100 101 101 101 101 102 103 104 104 104 104 104 104 104 102 100 100 100 101 102 103 103 103 101 99 99 99 100 101 102 102 101 101 101 101 101 102 103 104 104 104 103 104 106 107 108 110 113 115 116 117 117 117
100 101 100 98 98 98 97 95 95 94 94 96 100 101 101 101 100 99 99 99 97 96 96 96 95 94 95 97 98 99 99 98 99 99 99 99 98 98 98 99 101 102 102 102 102 102 102 100 98 98 98 99 100 101 102 102 100 98 98 98 98 98 97 95 95 96 97 98 100 101 102 103 103 103 103 103 104 106 107 108 111 114 116 117 117 117
98 100 98 95 94 95 93 89 91 94 94 95 96 98 99 99 98 97 97 95 93 93 93 94 93 93 94 95 96 96 96 96 96 96 96 96 95 95 94 95 97 99 99 100 99 99 100 99 97 96 96 97 98 100 101 101 100 98 97 98 99 98 95 93 91 91 91 93 95 97 99 101 101 101 102 102 103 104 105 106 109 112 115 116 117 117
95 98 96 91 90 93 90 85 88 95 95 93 93 95 96 96 95 95 94 91 88 88 90 91 92 92 92 93 93 93 93 93 93 93 93 93 92 92 92 93 95 96 97 98 98 98 98 97 96 95 95 95 97 99 100 100 99 98 97 98 99 98 95 93 91 90 89 90 91 93 96 98 99 99 100 100 101 102 102 103 105 108 111 114 116 116
93 96 94 88 88 90 87 83 89 95 93 90 89 89 90 91 92 92 91 88 86 86 87 89 90 90 91 92 92 92 91 91 91 92 92 91 91 91 92 93 94 95 95 96 97 97 97 96 95 95 94 93 94 96 97 97 97 97 96 97 97 96 94 92 91 90 90 89 89 91 93 95 96 98 99 99 99 99 99 99 101 104 106 110 112 114
91 92 90 86 86 87 84 83 90 94 90 87 87 86 86 88 88 88 88 87 87 87 87 88 89 90 90 91 91 91 91 91 91 92 91 91 91 91 92 92 93 93 94 95 96 96 95 94 94 92 91 90 90 92 93 93 94 95 95 93 93 92 90 90 90 90 89 89 88 88 90 92 94 96 98 99 99 98 97 95 96 98 102 105 108 111
89 88 87 85 86 85 82 83 90 92 87 84 84 84 84 86 86 87 88 88 88 88 88 88 89 89 90 91 91 91 91 91 92 92 91 91 91 91 91 91 91 92 93 93 94 94 93 92 90 89 88 87 87 88 89 89 91 93 92 90 88 87 86 86 87 87 87 87 87 87 87 88 90 92 95 97 99 99 98 95 94 94 96 100 104 107
88 85 85 86 84 82 81 84 89 90 85 81 82 84 85 86 86 87 88 89 89 89 88 89 90 90 90 91 91 92 92 91 92 92 91 91 91 90 90 90 90 91 91 91 91 91 90 89 87 87 86 85 85 85 85 86 88 90 89 87 85 84 83 82 83 84 84 84 86 86 86 86 86 87 90 93 96 98 99 98 96 93 93 96 100 104
87 82 85 88 84 80 81 86 89 88 84 80 82 84 85 85 86 87 88 89 89 89 89 90 91 91 91 92 92 92 92 92 91 91 90 90 89 88 88 88 88 88 88 88 87 86 86 86 85 84 83 83 83 82 82 83 85 87 86 85 83 82 82 81 80 80 80 81 83 84 84 84 83 84 86 89 92 96 97 98 97 95 92 93 97 100
84 83 86 89 84 79 79 84 87 87 84 82 82 83 84 86 87 87 87 88 88 89 90 91 91 92 92 93 93 93 92 91 90 89 87 86 85 85 85 85 85 84 83 83 83 82 83 83 82 82 81 80 80 80 79 79 80 82 83 82 82 82 82 80 79 77 77 79 79 80 81 81 81 82 83 85 88 91 94 95 96 95 93 92 95 97
Wind_Direction
278 281 282 278 276 280 283 282 280 279 277 276 275 275 273 272 272 274 273 274 274 274 278 280 279 275 268 268 272 277 282 283 280 279 282 284 283 282 280 281 282 283 283 283 282 283 283 284 285 285 284 282 280 277 275 273 273 273 273 273 273 273 273 273 271 271 273 274 274 275 276 276 276 277 276 274 271 269 268 266 265 263 263 264 265 265
277 282 281 276 278 282 283 282 281 280 279 277 275 272 272 272 270 271 274 274 274 274 273 274 277 277 272 271 273 277 282 282 281 281 281 281 283 282 282 282 281 281 281 281 280 279 279 279 280 281 281 281 280 279 276 275 275 275 274 272 271 272 272 272 272 271 270 271 272 274 275 275 276 276 276 276 275 274 272 271 269 267 265 264 264 264
279 282 278 277 280 282 281 281 282 282 281 280 276 272 270 270 268 268 272 273 274 275 273 273 272 270 269 270 271 276 280 280 281 283 282 280 280 281 283 283 281 281 280 280 281 280 279 278 277 278 278 278 278 278 278 276 276 277 277 275 274 273 272 272 273 272 271 271 271 271 272 274 275 276 276 276 276 276 275 274 273 272 270 268 266 264
281 279 276 277 279 279 279 280 281 282 283 282 279 275 271 270 268 267 269 272 275 275 273 272 271 267 264 264 265 269 274 277 279 282 282 281 278 279 282 283 282 281 281 280 280 280 280 279 278 278 278 278 278 278 278 277 276 277 277 278 277 276 275 274 273 273 273 272 272 271 271 272 273 275 276 278 278 276 276 276 276 275 274 273 270 267
280 277 276 277 278 278 279 280 280 281 282 282 281 279 276 275 274 271 268 269 271 273 273 272 269 267 265 259 258 260 266 274 278 279 280 280 280 278 279 281 282 282 282 281 280 280 280 280 280 280 279 279 279 279 279 279 278 277 277 277 278 277 276 276 275 275 274 274 273 272 272 271 271 272 274 276 277 277 277 276 276 276 275 273 272 270
279 277 276 277 278 279 280 281 281 280 281 283 283 282 281 281 279 277 273 270 269 270 271 271 268 265 265 262 258 256 258 266 274 277 278 279 279 279 278 278 279 279 280 280 280 281 281 281 281 281 282 281 280 280 280 281 280 280 279 278 278 278 278 278 277 277 276 276 275 274 273 273 272 272 272 272 274 275 276 276 276 275 274 273 272 271
277 276 278 279 279 280 280 281 282 282 281 281 281 282 282 282 281 279 278 276 273 271 270 271 270 263 261 266 264 260 257 258 265 271 275 278 279 278 278 277 276 276 276 277 278 281 283 283 283 283 283 282 281 280 280 281 280 280 281 281 281 281 280 280 279 278 277 277 276 275 275 274 273 273 272 272 272 272 272 272 273 273 273 273 273 272
275 276 278 279 279 279 280 282 284 284 283 282 282 282 283 283 283 282 281 280 279 277 274 273 273 266 258 262 265 264 264 260 260 265 268 272 275 275 276 276 276 276 275 274 275 276 280 283 284 285 286 285 283 281 281 280 280 279 280 281 282 282 281 280 279 278 277 276 275 275 274 274 273 273 272 272 272 271 270 269 269 269 270 271 271 272
273 275 276 278 279 279 280 282 284 285 285 286 286 286 287 288 288 288 287 287 285 282 280 279 279 272 259 260 264 263 268 264 260 264 266 267 269 269 270 271 272 273 274 275 275 275 277 279 281 283 286 287 286 285 284 282 281 280 279 280 280 280 279 279 278 276 276 275 274 273 273 272 272 271 272 272 271 270 269 269 268 268 268 269 269 270
272 273 275 277 279 279 280 282 284 285 287 288 288 288 289 289 289 290 291 291 289 288 288 286 284 278 264 264 274 273 275 273 268 271 272 270 267 265 264 266 267 268 268 271 274 277 279 278 279 280 282 284 286 287 287 286 285 282 281 280 280 279 278 277 276 274 273 272 272 272 272 272 272 271 271 270 270 269 269 268 268 269 269 269 270 270
273 274 275 277 278 279 281 282 283 285 286 286 287 286 287 287 288 289 290 291 290 290 291 288 286 284 270 266 282 285 287 287 283 282 282 280 277 273 269 266 264 264 264 266 270 272 274 275 276 277 278 279 281 283 285 286 286 286 284 282 280 279 278 277 275 274 272 271 270 270 271 272 273 273 272 271 271 270 269 268 268 268 269 270 270 270
274 275 275 276 277 278 279 280 282 283 284 284 285 285 286 287 288 289 290 291 291 291 292 288 287 286 279 274 282 284 290 293 290 288 288 287 285 282 279 275 270 268 266 266 268 268 268 268 269 270 272 274 276 278 279 281 282 283 284 284 283 281 279 277 275 274 272 271 269 269 269 270 271 271 272 272 272 271 270 268 268 268 268 269 269 270
272 273 274 275 276 277 278 280 281 281 282 283 285 286 286 287 287 288 289 288 288 290 291 289 288 287 286 287 287 286 289 292 292 292 290 286 283 280 280 280 279 279 277 275 274 272 270 268 267 267 268 270 272 274 276 276 277 278 279 280 281 281 280 279 277 275 273 272 270 269 268 267 268 268 269 269 270 271 270 269 268 268 268 268 268 269
275 275 275 276 276 277 278 279 279 280 281 282 284 285 286 288 288 288 286 285 287 289 290 289 290 290 291 293 292 291 291 292 293 292 289 285 282 281 281 283 285 286 287 285 284 282 280 278 276 273 271 269 269 271 274 274 274 274 275 275 275 275 276 277 277 277 275 273 271 269 267 266 266 265 265 266 267 267 268 268 268 268 268 268 268 267
276 276 277 278 278 278 278 279 279 280 280 281 283 284 285 287 287 285 285 285 288 289 290 292 293 294 295 294 293 293 294 293 292 288 285 283 283 284 287 289 289 289 289 289 288 288 287 285 284 282 280 276 273 272 273 273 272 272 272 273 273 272 272 272 273 274 275 274 272 270 268 267 266 265 264 264 264 264 264 265 265 266 267 267 266 266
278 277 277 277 278 279 278 278 279 280 281 281 282 283 284 284 283 283 285 287 288 289 291 293 294 294 294 293 293 294 294 293 289 285 283 283 285 288 290 291 290 289 289 288 288 287 287 286 285 283 282 281 279 276 274 273 272 270 269 270 271 271 270 269 269 270 271 271 271 270 268 267 266 265 265 264 264 264 263 263 263 264 265 265 265 265
280 279 279 278 278 278 278 278 279 279 280 281 282 281 281 280 281 283 286 288 288 289 291 292 291 291 292 292 293 292 290 288 285 284 286 287 288 289 289 288 287 287 287 286 286 285 284 283 282 282 280 279 278 277 275 274 272 271 269 269 270 270 269 269 268 267 267 267 268 268 267 266 264 263 263 264 264 264 264 263 262 262 263 263 263 264
282 281 281 281 280 280 280 279 279 280 281 281 280 278 278 278 281 283 284 286 286 287 288 288 288 288 288 290 291 288 285 284 284 285 287 287 287 287 286 285 284 284 284 283 283 283 282 281 281 280 279 277 276 274 274 273 273 272 271 270 270 270 268 267 267 266 266 265 265 266 266 266 265 264 263 263 263 263 263 263 262 262 261 261 261 261
283 283 283 283 283 283 282 282 283 284 281 278 277 278 279 280 281 282 282 282 283 283 285 285 286 286 286 287 287 284 283 284 285 285 285 284 284 283 283 282 282 281 281 281 281 280 279 278 277 276 275 274 273 272 271 271 271 271 271 271 270 270 268 266 265 264 264 265 265 265 266 266 266 266 266 265 264 262 262 262 262 261 261 260 260 260
285 285 286 286 285 284 285 286 287 285 281 279 280 282 283 282 281 281 280 281 282 283 284 285 286 286 286 286 285 284 285 285 284 283 282 281 281 281 281 281 281 280 280 280 279 278 277 275 274 272 271 270 270 269 269 269 268 269 269 269 269 268 267 266 264 263 262 262 263 264 264 265 266 266 266 266 265 263 262 261 261 260 260 260 259 259
285 286 287 288 287 287 287 288 286 283 282 283 283 283 283 283 281 280 280 281 282 283 285 286 286 287 287 287 287 287 286 285 283 281 280 279 279 279 280 280 280 280 280 279 279 277 276 275 273 271 269 268 267 266 266 266 266 266 267 268 267 266 265 264 263 263 263 262 262 262 263 264 265 265 265 265 264 262 262 262 261 260 259 259 259 259
285 286 287 288 288 288 287 286 285 285 285 285 284 283 283 282 281 280 281 282 283 283 283 285 286 287 287 287 287 287 286 284 282 281 280 279 279 278 279 279 279 278 278 277 277 276 276 274 273 272 270 268 266 265 264 264 264 265 265 266 266 266 265 263 262 261 261 262 262 261 262 263 264 264 264 263 262 261 261 261 261 261 260 259 259 259
284 284 286 287 288 287 286 286 286 286 286 285 284 284 283 282 281 282 282 283 283 283 283 284 285 286 287 287 287 286 284 283 282 282 281 280 279 278 277 277 276 276 275 275 274 274 274 273 272 272 270 269 268 266 265 264 264 264 264 264 264 264 264 263 261 260 259 259 260 261 262 262 262 263 263 263 262 261 261 260 260 260 260 260 260 260
283 283 284 285 286 286 286 286 286 286 285 284 283 283 282 282 282 282 283 283 283 283 283 284 285 286 286 286 285 284 283 283 283 282 282 281 280 279 278 276 275 274 273 273 272 272 272 271 270 269 269 268 268 267 267 266 265 265 264 263 263 263 262 262 260 259 258 258 258 260 261 262 263 263 263 262 262 262 262 261 261 260 259 259 259 260
282 282 283 284 284 285 285 285 284 284 283 282 282 282 282 282 282 282 282 282 282 283 284 285 285 285 285 284 283 282 282 282 282 282 281 281 281 281 279 278 276 274 273 272 272 271 271 270 269 268 267 267 267 267 267 267 267 266 266 265 264 263 264 263 262 260 259 259 258 258 260 261 263 263 263 262 262 262 262 262 261 260 260 259 259 259
281 281 282 282 283 283 283 282 282 281 281 281 281 281 281 282 282 282 282 282 283 284 285 284 284 284 284 283 282 282 281 281 281 281 281 281 281 281 280 279 277 275 274 272 272 271 270 269 268 267 266 266 266 266 266 267 267 267 267 267 266 265 265 265 264 263 261 261 261 261 261 261 261 262 263 263 263 262 262 262 262 261 260 259 258 258
280 280 281 281 281 281 281 281 281 281 280 280 280 280 281 281 281 281 282 283 284 284 283 283 283 283 282 281 281 281 281 281 282 281 281 281 280 280 280 279 278 276 274 273 272 270 269 268 267 267 266 265 265 265 265 266 266 267 267 266 266 265 265 265 265 264 264 263 262 262 262 262 261 261 261 263 263 263 262 262 262 261 260 259 258 258
279 279 280 280 280 280 281 281 281 281 280 280 280 280 280 281 281 282 283 284 284 283 282 282 282 281 280 280 280 281 281 281 281 281 280 280 280 279 279 279 278 277 276 274 272 270 269 268 266 266 265 265 265 265 265 265 265 265 265 265 265 265 265 264 264 265 264 264 263 263 263 263 262 262 261 260 261 262 263 262 261 260 259 259 258 258
279 279 279 279 280 280 280 280 280 280 280 280 280 280 280 281 282 283 284 283 282 281 281 282 281 281 281 282 282 282 281 281 280 280 279 279 279 279 278 278 278 277 276 275 274 272 270 269 267 266 265 264 264 265 265 265 265 264 264 264 264 264 264 264 264 264 264 264 264 263 263 263 262 262 261 260 259 259 260 260 260 260 259 258 258 258
279 279 279 279 279 279 280 280 280 280 279 279 280 280 281 282 283 283 282 282 281 281 281 281 281 281 282 283 283 282 281 281 280 279 279 279 278 278 278 277 277 277 276 275 275 274 272 271 269 267 266 265 264 264 264 264 264 264 264 263 263 262 262 262 262 263 263 263 263 263 262 262 262 261 261 261 260 258 257 257 257 258 258 258 258 257
279 279 279 279 279 279 279 280 279 279 279 279 280 281 282 283 283 281 280 280 280 280 281 281 282 282 282 282 282 281 281 280 280 279 279 279 278 278 278 277 277 277 276 276 275 274 273 272 270 269 268 266 265 263 263 262 262 262 262 263 262 262 261 261 260 260 261 262 262 262 262 261 261 261 260 260 259 258 257 256 255 255 256 257 257 257
279 279 279 279 279 279 279 279 279 279 279 279 281 283 284 283 281 280 280 280 279 279 280 281 281 282 281 281 280 280 280 280 279 279 279 279 279 278 278 278 278 277 277 276 276 275 273 272 271 270 269 267 266 264 263 262 261 261 261 261 261 261 261 260 260 259 259 260 260 261 261 261 260 260 259 258 258 257 257 256 256 255 255 255 255 256
279 279 279 279 279 279 280 280 280 279 279 280 283 284 282 281 280 280 280 279 279 280 280 280 280 280 280 280 280 280 279 279 279 279 279 279 279 279 279 278 278 278 277 276 276 275 274 272 271 270 269 268 267 266 265 263 262 261 261 260 260 260 260 259 259 258 258 258 259 259 259 259 259 258 258 258 257 257 256 256 256 256 255 254 254 254
278 279 279 279 280 280 281 281 280 280 281 283 285 283 281 281 281 280 279 279 279 279 279 279 279 279 278 278 278 279 279 279 279 279 279 279 279 278 278 278 278 277 277 276 275 274 273 272 271 270 269 268 267 267 266 265 264 263 262 261 260 260 259 258 258 258 257 257 257 257 258 258 258 258 257 257 257 257 256 256 256 256 256 255 255 254
279 279 279 280 281 281 282 281 280 281 283 284 283 282 282 282 281 279 279 279 279 279 279 279 278 278 277 277 277 278 278 278 278 278 279 279 278 278 278 277 277 276 276 275 275 274 274 273 272 271 270 269 268 267 266 266 265 264 264 263 261 260 259 258 258 257 256 256 256 256 256 256 257 257 257 256 256 257 256 256 256 256 256 256 256 255
280 280 281 281 281 282 282 282 281 282 283 282 282 282 281 279 278 278 279 279 279 279 279 278 278 277 277 277 277 277 277 277 278 278 279 279 279 278 278 277 277 276 276 275 274 273 273 272 271 271 270 269 268 267 266 265 265 264 264 264 263 261 260 259 258 257 256 255 255 255 255 255 256 256 256 256 256 256 256 256 256 256 256 256 256 256
281 281 282 281 281 281 282 281 282 282 282 282 282 281 279 278 278 278 278 278 278 278 278 277 277 277 277 277 277 277 278 278 279 279 279 279 278 278 278 278 278 277 277 276 275 274 273 272 271 270 270 269 269 268 267 266 265 264 264 264 263 263 262 261 259 258 257 256 255 254 254 254 255 255 255 256 256 255 256 256 256 256 256 256 256 256
281 282 282 282 282 281 281 281 280 281 281 281 280 279 278 278 278 278 277 277 277 276 276 276 276 276 276 277 277 278 278 279 279 279 279 279 278 278 278 278 277 277 276 276 275 275 274 273 272 272 271 271 270 270 270 269 268 267 266 264 264 263 263 262 261 260 259 258 256 255 254 254 254 254 254 255 255 256 256 256 256 256 256 256 256 256
282 282 282 282 282 282 281 281 280 280 280 279 278 277 277 277 277 277 277 277 276 276 275 274 275 275 276 276 277 277 278 278 278 278 278 278 278 277 277 276 276 276 276 275 275 274 274 274 274 274 273 272 271 270 270 270 269 269 268 267 266 265 264 263 262 262 261 259 258 257 255 254 253 253 253 253 253 254 255 255 256 256 257 257 257 257
281 281 281 281 281 281 281 281 281 280 280 280 279 278 278 277 277 276 276 276 275 273 273 274 275 275 276 276 277 277 278 278 277 277 276 276 276 276 276 276 276 275 275 275 275 275 274 274 274 274 273 273 272 271 270 269 268 267 267 267 266 266 265 264 262 262 261 261 260 259 257 255 254 253 253 252 252 252 253 254 254 255 256 257 257 257
280 279 279 279 280 280 280 280 280 280 281 281 281 280 279 278 276 275 275 275 274 273 274 275 275 276 277 278 278 278 277 276 276 275 275 274 275 275 276 276 276 276 275 275 275 274 274 274 274 274 273 272 272 271 270 269 268 267 266 265 265 265 265 265 264 263 262 262 261 260 259 258 256 254 253 252 251 251 251 251 252 253 254 255 256 256
279 278 278 278 279 279 279 279 280 281 281 281 280 279 279 277 277 276 276 275 275 276 277 276 277 277 278 278 277 276 276 275 275 275 274 274 274 275 275 275 276 276 275 275 275 274 274 274 274 273 273 273 272 272 271 271 270 269 268 267 266 265 265 265 266 266 265 264 263 262 261 260 259 257 255 253 252 251 250 250 250 251 252 253 254 255
279 279 278 278 278 278 279 279 280 281 279 278 278 278 277 277 277 277 277 277 278 279 279 279 279 278 278 277 276 275 275 276 275 275 275 275 275 274 275 275 275 276 275 275 275 274 274 274 274 273 273 273 273 273 273 273 272 272 271 271 269 268 267 266 266 265 265 265 265 264 263 262 260 259 257 255 253 251 250 249 249 250 251 251 252 253
280 280 279 279 279 279 279 279 280 279 277 276 276 277 277 277 277 277 278 278 279 280 280 280 279 278 277 276 276 276 276 276 276 276 276 275 275 276 276 275 275 275 275 275 275 275 275 274 274 274 274 274 274 273 273 273 273 273 272 272 271 270 269 268 267 265 265 264 264 264 263 263 261 260 258 257 255 253 251 250 249 249 250 250 251 251
280 280 280 280 280 279 280 280 279 277 276 275 275 276 278 279 279 279 279 280 280 280 280 279 279 278 278 277 277 277 276 276 276 276 276 276 277 276 276 275 275 275 275 275 275 275 275 275 275 274 274 274 274 274 274 274 273 273 272 272 271 271 271 270 269 267 265 264 262 262 262 262 262 261 259 257 256 254 252 251 249 249 249 249 250 250
280 280 280 281 280 280 280 279 277 275 275 276 276 277 278 279 280 280 281 281 281 280 279 278 278 278 278 278 278 278 278 278 278 278 278 278 277 277 276 276 276 276 276 276 276 276 276 276 276 275 274 274 274 274 274 274 274 273 272 271 271 270 270 270 269 268 266 264 262 261 260 260 261 261 260 259 257 255 253 251 250 249 248 248 249 249
280 280 280 280 279 279 279 279 277 277 277 278 278 278 279 279 280 280 281 281 280 279 279 278 278 279 279 279 279 279 279 279 279 279 279 279 278 278 278 278 278 278 278 278 278 277 277 277 277 276 276 275 275 274 274 274 273 273 271 270 270 270 270 269 269 268 267 266 264 262 260 259 259 259 260 260 259 258 255 252 250 248 248 247 248 248
280 279 280 279 278 278 279 278 277 277 278 279 280 281 280 280 280 281 280 280 280 279 279 279 280 280 280 280 280 280 280 280 280 280 280 280 280 280 280 280 280 280 279 279 279 278 278 278 278 278 277 277 276 275 275 274 274 273 272 271 270 270 269 268 268 267 266 266 264 262 260 259 258 257 258 258 259 259 258 256 253 249 247 247 247 247
279 280 280 278 278 278 278 277 276 277 279 280 281 280 280 280 280 280 280 280 280 280 281 281 281 280 280 281 281 281 281 280 280 281 281 281 281 281 281 281 281 280 280 279 279 279 279 279 279 278 278 277 276 276 275 275 274 274 273 273 272 271 270 268 267 266 266 265 264 263 261 259 257 256 255 256 256 257 258 258 256 253 250 248 247 246
280 280 279 277 277 277 278 277 278 279 280 280 279 279 280 280 280 279 279 280 281 281 281 281 281 281 281 281 281 281 281 281 281 282 282 282 282 282 282 281 280 280 279 279 280 280 280 280 279 278 278 277 277 276 275 275 274 275 275 275 274 273 272 270 269 267 267 266 265 264 263 261 259 257 254 253 254 255 256 256 257 256 253 251 249 248
279 279 277 277 277 277 277 277 278 279 280 280 279 279 280 279 279 279 279 280 281 281 281 281 282 282 282 282 282 282 282 282 282 282 283 283 284 283 282 281 280 280 280 280 280 280 280 280 280 279 278 277 276 275 275 275 275 275 275 276 275 274 273 272 271 269 268 266 264 263 262 261 260 258 256 254 253 253 254 255 256 256 255 253 251 250
Height
10736 10739 10738 10730 10726 10728 10731 10732 10732 10734 10735 10737 10738 10738 10739 10739 10739 10735 10734 10735 10736 10742 10743 10739 10741 10744 10744 10741 10738 10735 10731 10727 10723 10725 10727 10724 10721 10720 10718 10718 10717 10716 10713 10710 10710 10711 10712 10711 10710 10710 10710 10710 10712 10714 10715 10716 10716 10716 10715 10714 10713 10713 10713 10713 10713 10713 10713 10712 10712 10713 10713 10712 10711 10712 10711 10711 10711 10711 10712 10712 10712 10713 10714 10715 10717 10718
10731 10734 10730 10721 10721 10725 10725 10723 10724 10726 10727 10729 10731 10732 10733 10733 10733 10731 10729 10730 10730 10737 10740 10737 10738 10739 10738 10737 10734 10732 10728 10722 10717 10719 10723 10721 10717 10712 10712 10713 10712 10709 10707 10704 10703 10704 10705 10705 10703 10703 10703 10703 10704 10706 10708 10709 10709 10710 10710 10709 10707 10707 10707 10707 10707 10708 10707 10707 10708 10708 10708 10707 10707 10707 10706 10705 10705 10706 10706 10706 10706 10707 10708 10709 10710 10712
10727 10727 10719 10713 10717 10718 10717 10716 10716 10718 10720 10721 10722 10724 10726 10724 10725 10727 10724 10724 10725 10730 10733 10733 10735 10736 10733 10732 10731 10729 10723 10717 10715 10714 10716 10717 10714 10708 10705 10706 10705 10703 10701 10698 10695 10695 10697 10697 10696 10696 10696 10697 10698 10700 10701 10701 10702 10703 10703 10703 10703 10702 10702 10701 10701 10701 10701 10702 10703 10703 10703 10702 10702 10701 10700 10700 10699 10699 10699 10700 10701 10702 10703 10703 10704 10704
10721 10717 10710 10708 10710 10710 10709 10709 10708 10710 10712 10713 10713 10715 10718 10715 10716 10722 10720 10717 10720 10722 10725 10728 10730 10731 10730 10729 10727 10725 10719 10713 10712 10711 10709 10710 10709 10705 10701 10698 10697 10696 10694 10692 10688 10686 10688 10689 10689 10690 10690 10690 10691 10693 10695 10695 10696 10696 10697 10697 10697 10697 10697 10696 10696 10696 10696 10696 10697 10697 10697 10697 10697 10696 10695 10694 10693 10693 10693 10694 10695 10696 10697 10697 10696 10695
10713 10707 10702 10703 10702 10701 10702 10701 10699 10702 10704 10705 10705 10705 10708 10708 10708 10713 10713 10713 10714 10714 10716 10720 10724 10726 10724 10723 10722 10720 10715 10710 10708 10706 10704 10703 10701 10699 10696 10693 10691 10688 10687 10685 10681 10679 10680 10682 10683 10683 10683 10684 10685 10686 10688 10690 10691 10690 10691 10692 10692 10692 10691 10691 10691 10690 10691 10691 10690 10691 10691 10691 10691 10691 10690 10689 10686 10685 10687 10688 10689 10690 10690 10689 10688 10687
10705 10696 10693 10696 10694 10692 10694 10692 10689 10693 10698 10699 10696 10694 10697 10700 10700 10701 10702 10706 10709 10708 10708 10710 10714 10720 10719 10716 10716 10714 10710 10708 10704 10700 10699 10696 10693 10691 10688 10687 10685 10682 10680 10677 10673 10672 10673 10676 10677 10676 10677 10678 10679 10681 10682 10683 10684 10684 10684 10685 10685 10686 10685 10685 10685 10685 10684 10684 10684 10684 10684 10683 10684 10684 10683 10682 10680 10680 10680 10681 10682 10682 10682 10681 10680 10680
10696 10687 10686 10689 10687 10685 10685 10683 10680 10683 10689 10692 10688 10684 10686 10689 10690 10691 10692 10695 10700 10702 10703 10702 10703 10711 10715 10711 10709 10708 10705 10704 10700 10696 10694 10689 10686 10683 10679 10677 10677 10675 10673 10670 10667 10666 10667 10669 10671 10669 10670 10672 10673 10674 10676 10677 10678 10678 10677 10678 10678 10678 10679 10678 10678 10677 10677 10676 10676 10676 10676 10676 10676 10675 10675 10674 10674 10674 10673 10673 10674 10673 10673 10672 10672 10672
10687 10682 10681 10681 10680 10679 10676 10673 10672 10674 10678 10682 10681 10677 10677 10678 10679 10682 10683 10685 10689 10692 10696 10696 10692 10698 10709 10708 10702 10701 10699 10697 10694 10691 10687 10682 10679 10675 10669 10668 10667 10664 10664 10663 10661 10662 10662 10663 10664 10664 10663 10663 10664 10666 10668 10670 10670 10671 10671 10670 10671 10671 10670 10670 10670 10669 10668 10668 10667 10667 10667 10667 10667 10666 10666 10666 10666 10665 10665 10665 10665 10665 10664 10664 10664 10664
10678 10677 10676 10674 10674 10671 10667 10665 10664 10663 10665 10669 10670 10668 10667 10666 10667 10670 10672 10674 10676 10680 10688 10689 10680 10682 10699 10703 10695 10694 10693 10689 10688 10684 10678 10675 10672 10667 10662 10660 10659 10656 10654 10653 10654 10656 10659 10660 10660 10660 10658 10654 10653 10655 10656 10659 10661 10662 10662 10662 10662 10662 10662 10661 10661 10661 10659 10659 10658 10657 10657 10657 10657 10658 10657 10657 10657 10656 10656 10657 10656 10656 10656 10655 10656 10656
10669 10671 10670 10668 10666 10661 10659 10657 10655 10653 10653 10655 10656 10656 10656 10654 10655 10657 10659 10661 10661 10668 10679 10676 10666 10669 10688 10697 10690 10686 10684 10680 10679 10674 10668 10666 10661 10657 10653 10651 10650 10649 10649 10649 10649 10650 10652 10655 10655 10655 10655 10651 10646 10643 10642 10643 10645 10648 10651 10652 10652 10652 10652 10652 10652 10652 10650 10650 10649 10647 10647 10647 10648 10648 10648 10648 10647 10647 10647 10648 10647 10647 10648 10648 10648 10647
10661 10664 10663 10661 10657 10653 10652 10648 10646 10645 10643 10642 10642 10644 10643 10642 10645 10644 10646 10647 10645 10656 10667 10661 10653 10655 10675 10691 10684 10676 10672 10669 10666 10662 10656 10653 10647 10643 10641 10641 10641 10641 10644 10649 10651 10650 10648 10647 10646 10647 10648 10647 10644 10640 10635 10631 10630 10630 10633 10637 10640 10641 10642 10641 10641 10642 10641 10641 10640 10638 10638 10638 10638 10639 10639 10638 10638 10638 10638 10638 10638 10638 10639 10639 10640 10639
10653 10654 10654 10653 10647 10645 10643 10639 10638 10636 10632 10630 10629 10630 10629 10629 10631 10630 10633 10632 10628 10640 10651 10646 10639 10641 10663 10682 10674 10665 10662 10656 10653 10649 10644 10638 10631 10627 10624 10625 10629 10632 10638 10645 10647 10646 10644 10640 10638 10638 10638 10639 10638 10635 10632 10629 10626 10623 10620 10620 10623 10626 10629 10630 10630 10630 10630 10630 10630 10629 10629 10629 10628 10629 10628 10628 10627 10627 10628 10628 10628 10629 10630 10630 10630 10630
10645 10646 10644 10642 10639 10637 10634 10631 10630 10626 10622 10620 10617 10617 10615 10615 10616 10615 10617 10614 10612 10625 10632 10629 10624 10628 10652 10670 10661 10654 10650 10642 10639 10635 10630 10624 10616 10611 10611 10613 10618 10623 10629 10635 10635 10633 10633 10631 10628 10628 10628 10629 10629 10625 10623 10623 10621 10620 10617 10614 10613 10612 10612 10615 10616 10617 10618 10618 10618 10618 10618 10618 10618 10618 10617 10616 10616 10615 10616 10617 10618 10619 10619 10619 10620 10620
10634 10637 10636 10631 10628 10629 10627 10622 10619 10616 10614 10612 10610 10606 10602 10603 10601 10596 10596 10594 10597 10609 10611 10610 10609 10616 10640 10654 10646 10642 10639 10632 10628 10619 10611 10606 10599 10595 10600 10607 10609 10613 10618 10620 10619 10618 10617 10617 10616 10615 10615 10615 10615 10613 10610 10609 10609 10610 10610 10609 10607 10604 10602 10601 10601 10602 10603 10604 10605 10605 10604 10604 10605 10605 10604 10604 10604 10603 10603 10604 10605 10606 10607 10608 10608 10608
10620 10626 10632 10622 10615 10618 10618 10612 10606 10605 10605 10604 10603 10597 10594 10594 10584 10573 10575 10577 10583 10589 10590 10591 10594 10601 10621 10633 10631 10629 10626 10622 10614 10603 10594 10590 10585 10583 10590 10598 10598 10599 10603 10603 10602 10601 10600 10601 10600 10599 10598 10598 10599 10597 10593 10592 10592 10595 10596 10596 10596 10595 10594 10592 10590 10589 10588 10589 10590 10590 10590 10590 10590 10591 10591 10590 10590 10590 10590 10590 10592 10593 10594 10595 10595 10595
10603 10612 10624 10616 10605 10606 10606 10602 10598 10593 10592 10593 10593 10589 10586 10581 10566 10557 10559 10563 10565 10564 10570 10578 10579 10584 10598 10608 10616 10618 10613 10608 10594 10582 10579 10578 10577 10577 10581 10586 10584 10583 10586 10586 10586 10585 10584 10584 10583 10582 10581 10581 10582 10581 10578 10575 10575 10577 10580 10580 10580 10580 10580 10580 10579 10578 10577 10576 10576 10576 10576 10576 10576 10576 10575 10575 10575 10576 10577 10577 10579 10580 10580 10581 10581 10581
10586 10595 10610 10609 10599 10594 10592 10592 10591 10585 10582 10581 10580 10579 10574 10564 10555 10551 10546 10547 10546 10540 10548 10559 10562 10569 10576 10583 10602 10608 10600 10591 10574 10564 10567 10568 10568 10568 10568 10570 10568 10566 10565 10566 10568 10567 10566 10565 10564 10565 10564 10563 10564 10564 10562 10561 10560 10560 10561 10562 10562 10563 10564 10564 10564 10564 10564 10564 10563 10562 10563 10562 10562 10561 10561 10561 10561 10562 10563 10564 10565 10565 10565 10566 10566 10567
10568 10572 10590 10597 10590 10581 10578 10579 10581 10579 10574 10567 10562 10561 10559 10552 10549 10545 10533 10531 10531 10524 10527 10537 10542 10552 10555 10561 10584 10593 10584 10574 10561 10556 10560 10558 10555 10553 10552 10553 10553 10551 10546 10545 10548 10548 10546 10545 10545 10545 10545 10544 10545 10545 10546 10546 10545 10545 10544 10544 10543 10544 10546 10547 10547 10547 10547 10548 10548 10547 10547 10546 10546 10546 10546 10547 10548 10548 10548 10548 10549 10550 10551 10551 10552 10553
10553 10550 10563 10579 10579 10568 10560 10563 10570 10570 10560 10550 10543 10542 10545 10543 10540 10534 10522 10517 10517 10510 10510 10516 10521 10530 10536 10545 10561 10566 10564 10560 10554 10551 10549 10543 10540 10538 10535 10534 10535 10535 10531 10526 10528 10529 10527 10525 10526 10526 10524 10523 10524 10525 10527 10528 10529 10529 10528 10529 10527 10525 10526 10528 10530 10531 10530 10531 10532 10531 10531 10530 10530 10531 10531 10532 10532 10532 10533 10532 10532 10533 10535 10536 10536 10538
10541 10533 10535 10554 10563 10553 10546 10550 10558 10555 10541 10531 10528 10529 10531 10530 10526 10519 10510 10505 10503 10497 10495 10495 10497 10505 10516 10527 10533 10534 10539 10542 10539 10538 10534 10528 10524 10521 10519 10517 10515 10517 10514 10508 10506 10507 10506 10503 10503 10505 10505 10504 10504 10504 10506 10507 10509 10511 10511 10512 10512 10510 10509 10508 10509 10512 10513 10514 10514 10514 10514 10513 10513 10514 10515 10515 10515 10515 10515 10515 10514 10515 10517 10519 10521 10524
10524 10518 10517 10528 10537 10535 10536 10539 10538 10534 10526 10518 10515 10514 10515 10513 10507 10500 10494 10495 10493 10484 10480 10476 10472 10482 10497 10503 10506 10508 10511 10512 10511 10511 10511 10510 10507 10504 10503 10502 10498 10497 10495 10489 10484 10482 10483 10481 10479 10482 10483 10484 10483 10484 10485 10487 10489 10491 10493 10493 10494 10494 10494 10493 10491 10491 10492 10494 10496 10497 10496 10495 10496 10496 10497 10498 10498 10498 10498 10497 10496 10496 10497 10501 10505 10508
10506 10502 10502 10508 10513 10516 10521 10522 10518 10515 10514 10508 10500 10498 10499 10495 10489 10479 10474 10483 10485 10471 10465 10460 10453 10463 10479 10482 10482 10484 10481 10477 10477 10479 10482 10485 10486 10486 10486 10484 10482 10479 10475 10471 10466 10462 10461 10460 10458 10458 10460 10461 10462 10463 10464 10466 10468 10471 10474 10475 10475 10475 10476 10476 10476 10475 10474 10473 10474 10476 10478 10477 10477 10477 10478 10480 10481 10481 10481 10479 10478 10477 10479 10483 10485 10488
10488 10484 10484 10490 10495 10497 10500 10504 10503 10500 10498 10493 10484 10482 10481 10476 10473 10466 10458 10463 10466 10456 10452 10449 10440 10446 10459 10463 10460 10456 10450 10446 10446 10449 10453 10456 10460 10463 10464 10464 10462 10461 10457 10453 10449 10446 10443 10442 10440 10439 10438 10438 10439 10440 10442 10445 10447 10449 10452 10456 10456 10456 10456 10457 10458 10459 10459 10458 10456 10455 10456 10457 10458 10458 10458 10461 10462 10463 10463 10462 10461 10460 10462 10465 10466 10469
10473 10468 10467 10470 10476 10479 10482 10487 10489 10486 10481 10474 10468 10466 10464 10460 10460 10456 10449 10446 10440 10434 10438 10436 10428 10431 10441 10442 10436 10429 10425 10423 10421 10422 10425 10426 10428 10432 10437 10440 10440 10440 10438 10434 10431 10429 10426 10424 10424 10422 10421 10420 10419 10419 10421 10423 10426 10428 10431 10435 10437 10436 10436 10437 10439 10439 10441 10442 10442 10440 10437 10436 10437 10438 10440 10441 10443 10444 10444 10444 10444 10444 10446 10448 10449 10451
10459 10455 10452 10451 10455 10462 10469 10473 10474 10471 10466 10456 10449 10448 10448 10446 10445 10440 10437 10430 10416 10415 10423 10419 10411 10416 10421 10417 10412 10408 10406 10405 10402 10400 10400 10400 10400 10402 10406 10411 10415 10417 10417 10415 10413 10411 10409 10406 10406 10405 10405 10405 10403 10402 10402 10403 10405 10408 10409 10413 10416 10416 10415 10416 10418 10420 10421 10422 10424 10426 10424 10421 10418 10418 10419 10421 10423 10425 10425 10425 10426 10428 10430 10431 10432 10433
10443 10440 10441 10438 10436 10440 10449 10455 10457 10455 10449 10439 10432 10431 10431 10431 10428 10422 10418 10410 10402 10403 10406 10396 10391 10397 10399 10392 10387 10387 10386 10386 10385 10383 10381 10381 10379 10378 10380 10383 10388 10393 10394 10395 10394 10393 10392 10390 10388 10387 10388 10388 10388 10387 10387 10386 10387 10388 10390 10391 10394 10396 10396 10395 10396 10398 10400 10402 10404 10407 10408 10407 10404 10401 10400 10401 10403 10405 10406 10407 10408 10410 10412 10414 10415 10416
10424 10422 10427 10425 10418 10419 10424 10429 10434 10433 10426 10419 10416 10415 10414 10411 10408 10404 10398 10395 10394 10388 10378 10377 10378 10376 10373 10370 10367 10366 10367 10366 10368 10367 10364 10362 10360 10359 10359 10359 10363 10367 10370 10373 10374 10374 10374 10373 10371 10371 10370 10370 10370 10370 10370 10370 10370 10370 10372 10372 10373 10375 10376 10376 10376 10377 10379 10382 10384 10386 10388 10389 10389 10388 10386 10384 10384 10385 10387 10389 10389 10391 10393 10395 10397 10399
10408 10403 10409 10408 10398 10398 10402 10404 10408 10406 10399 10396 10395 10394 10395 10391 10388 10387 10384 10383 10379 10362 10351 10361 10364 10351 10346 10351 10351 10351 10352 10350 10349 10349 10346 10345 10343 10341 10340 10340 10341 10343 10346 10349 10352 10354 10355 10355 10355 10354 10353 10352 10352 10351 10351 10352 10352 10353 10354 10354 10354 10355 10356 10356 10356 10357 10358 10360 10363 10366 10368 10369 10369 10370 10370 10370 10369 10368 10368 10369 10371 10373 10375 10376 10379 10381
10389 10383 10391 10389 10378 10378 10382 10381 10383 10379 10373 10372 10372 10372 10375 10375 10374 10373 10370 10366 10357 10338 10331 10341 10341 10330 10328 10332 10333 10334 10335 10332 10331 10330 10328 10327 10326 10325 10324 10324 10323 10324 10325 10327 10329 10332 10334 10336 10337 10337 10337 10336 10335 10333 10333 10332 10332 10333 10334 10335 10336 10336 10337 10338 10338 10337 10338 10340 10342 10345 10347 10349 10349 10349 10350 10352 10353 10352 10352 10352 10352 10353 10356 10358 10361 10362
10367 10363 10371 10369 10358 10358 10362 10362 10360 10353 10348 10349 10351 10353 10357 10362 10364 10359 10350 10345 10336 10321 10316 10319 10317 10315 10316 10314 10313 10313 10311 10311 10311 10310 10310 10309 10308 10308 10308 10308 10308 10308 10308 10309 10310 10312 10313 10314 10316 10317 10318 10319 10318 10317 10316 10315 10314 10313 10313 10314 10316 10317 10318 10320 10321 10320 10318 10319 10321 10323 10326 10328 10329 10330 10331 10332 10333 10334 10335 10336 10336 10336 10337 10339 10341 10343
10347 10344 10349 10346 10335 10335 10346 10346 10337 10329 10326 10328 10332 10339 10345 10348 10346 10338 10330 10326 10318 10307 10304 10301 10295 10297 10301 10297 10293 10291 10289 10290 10290 10290 10291 10291 10291 10291 10292 10292 10292 10292 10292 10293 10294 10294 10295 10295 10295 10296 10297 10298 10299 10299 10299 10299 10298 10297 10295 10295 10295 10296 10298 10300 10302 10303 10302 10301 10301 10302 10305 10308 10310 10311 10312 10313 10314 10315 10317 10318 10319 10320 10320 10321 10322 10324
10328 10322 10325 10324 10311 10314 10330 10327 10313 10309 10308 10309 10319 10331 10334 10328 10319 10314 10310 10306 10299 10295 10294 10289 10281 10280 10280 10276 10272 10271 10271 10271 10271 10271 10272 10273 10273 10274 10275 10276 10276 10276 10276 10276 10275 10276 10276 10276 10276 10276 10276 10277 10278 10279 10279 10280 10280 10279 10279 10278 10277 10277 10278 10280 10282 10284 10284 10284 10284 10284 10285 10287 10290 10291 10292 10293 10295 10297 10298 10300 10301 10303 10304 10305 10306 10307
10310 10303 10302 10300 10290 10294 10312 10308 10293 10287 10285 10295 10316 10321 10310 10303 10298 10294 10291 10286 10282 10280 10277 10274 10270 10265 10260 10256 10253 10252 10252 10253 10254 10254 10254 10255 10256 10256 10258 10259 10259 10260 10260 10258 10257 10257 10257 10257 10258 10257 10257 10257 10257 10257 10258 10259 10261 10261 10261 10261 10260 10259 10260 10262 10263 10264 10267 10267 10267 10267 10267 10268 10270 10272 10272 10274 10276 10278 10280 10281 10283 10284 10285 10288 10289 10290
10293 10287 10282 10280 10272 10274 10290 10290 10273 10264 10269 10288 10306 10298 10284 10283 10281 10272 10268 10268 10267 10263 10259 10256 10252 10247 10243 10240 10237 10236 10236 10237 10237 10237 10237 10238 10239 10239 10240 10241 10241 10242 10242 10240 10239 10238 10237 10238 10239 10239 10240 10240 10239 10238 10238 10238 10240 10242 10242 10243 10242 10242 10242 10244 10245 10246 10248 10250 10250 10249 10249 10249 10251 10253 10254 10255 10257 10259 10261 10263 10265 10266 10267 10269 10272 10274
10273 10270 10266 10264 10258 10255 10267 10267 10250 10248 10264 10277 10278 10274 10271 10267 10257 10248 10248 10252 10252 10247 10242 10238 10232 10227 10225 10223 10221 10220 10220 10221 10222 10222 10220 10220 10221 10222 10223 10223 10223 10224 10224 10223 10222 10221 10219 10219 10220 10220 10221 10221 10221 10220 10219 10220 10221 10222 10222 10222 10223 10224 10224 10225 10227 10228 10230 10232 10233 10232 10232 10232 10232 10234 10236 10238 10239 10241 10242 10244 10247 10249 10250 10253 10255 10256
10253 10252 10249 10247 10244 10240 10243 10242 10232 10234 10251 10257 10254 10257 10256 10244 10234 10231 10231 10236 10238 10232 10224 10218 10212 10209 10207 10206 10205 10203 10203 10206 10209 10209 10205 10203 10203 10203 10203 10204 10204 10204 10205 10205 10204 10204 10202 10200 10200 10201 10201 10201 10201 10200 10200 10201 10203 10204 10204 10203 10202 10204 10206 10206 10208 10210 10212 10215 10216 10215 10215 10215 10216 10217 10218 10220 10222 10224 10224 10226 10229 10230 10232 10236 10237 10238
10235 10234 10231 10227 10228 10227 10223 10222 10221 10220 10228 10236 10237 10236 10229 10221 10219 10218 10215 10220 10223 10215 10206 10199 10194 10191 10190 10188 10186 10185 10187 10192 10196 10194 10189 10185 10185 10184 10184 10184 10184 10184 10184 10183 10182 10182 10181 10180 10180 10181 10182 10182 10181 10180 10179 10181 10184 10185 10187 10186 10183 10183 10185 10186 10188 10191 10194 10197 10198 10199 10198 10198 10199 10201 10201 10201 10203 10206 10207 10208 10210 10212 10214 10218 10220 10221
10221 10218 10214 10206 10207 10212 10206 10203 10208 10208 10209 10217 10218 10212 10206 10203 10203 10201 10198 10203 10207 10199 10189 10183 10178 10176 10175 10172 10171 10172 10173 10176 10180 10181 10174 10167 10167 10167 10167 10166 10165 10164 10164 10162 10160 10159 10158 10158 10159 10162 10163 10163 10163 10160 10159 10161 10164 10165 10167 10168 10165 10164 10165 10166 10167 10171 10175 10177 10178 10180 10181 10180 10181 10183 10185 10185 10185 10187 10189 10190 10191 10193 10195 10199 10203 10205
10208 10204 10201 10189 10188 10194 10188 10183 10191 10194 10193 10195 10195 10192 10190 10189 10189 10184 10178 10184 10191 10182 10169 10165 10165 10162 10160 10159 10160 10161 10160 10160 10165 10168 10160 10151 10148 10148 10148 10149 10148 10145 10144 10143 10140 10139 10139 10139 10140 10143 10144 10143 10143 10142 10140 10141 10144 10145 10145 10146 10145 10144 10145 10145 10147 10151 10155 10156 10157 10160 10161 10161 10162 10164 10167 10169 10169 10169 10170 10171 10172 10174 10177 10180 10185 10188
10195 10190 10184 10175 10174 10177 10171 10168 10174 10177 10176 10174 10169 10169 10173 10174 10172 10167 10162 10166 10170 10160 10151 10152 10153 10149 10146 10146 10148 10149 10148 10147 10148 10151 10146 10137 10132 10129 10129 10131 10131 10129 10127 10125 10122 10121 10120 10121 10123 10125 10125 10123 10121 10120 10120 10121 10124 10127 10126 10124 10124 10123 10122 10123 10128 10132 10134 10135 10136 10138 10139 10140 10142 10146 10148 10150 10153 10154 10154 10154 10155 10156 10158 10161 10166 10170
10181 10175 10167 10163 10163 10163 10159 10156 10158 10161 10164 10158 10145 10144 10152 10153 10149 10148 10147 10145 10142 10139 10140 10142 10140 10137 10136 10135 10134 10134 10133 10130 10129 10130 10129 10124 10120 10117 10114 10111 10111 10111 10109 10107 10105 10103 10101 10104 10106 10107 10107 10104 10100 10098 10097 10099 10103 10108 10107 10106 10106 10105 10102 10103 10109 10114 10115 10117 10117 10117 10118 10119 10122 10126 10129 10131 10134 10136 10138 10138 10137 10138 10140 10142 10146 10151
10162 10155 10153 10154 10152 10149 10147 10145 10143 10149 10154 10143 10126 10124 10130 10129 10127 10129 10128 10124 10122 10124 10127 10126 10126 10127 10125 10121 10118 10115 10114 10113 10112 10111 10110 10109 10107 10106 10102 10097 10094 10092 10091 10089 10088 10085 10083 10086 10089 10088 10087 10085 10081 10079 10078 10078 10083 10087 10088 10089 10090 10088 10087 10091 10095 10097 10098 10100 10100 10100 10099 10099 10101 10105 10109 10112 10114 10117 10120 10121 10119 10120 10122 10124 10126 10130
10142 10135 10137 10142 10139 10134 10136 10138 10134 10134 10134 10124 10111 10109 10110 10108 10109 10110 10107 10107 10111 10112 10110 10108 10110 10112 10108 10103 10100 10097 10096 10097 10095 10093 10093 10092 10091 10091 10090 10086 10080 10075 10072 10070 10070 10068 10065 10068 10072 10072 10071 10068 10064 10061 10059 10059 10064 10068 10070 10070 10069 10068 10072 10079 10082 10082 10083 10083 10082 10081 10081 10080 10082 10084 10088 10092 10094 10097 10102 10105 10103 10103 10105 10107 10109 10113
10126 10117 10119 10128 10127 10118 10122 10131 10125 10112 10109 10108 10102 10095 10091 10092 10094 10093 10092 10097 10101 10099 10095 10092 10091 10091 10087 10084 10082 10081 10081 10081 10078 10077 10076 10076 10076 10077 10076 10073 10066 10060 10056 10054 10053 10053 10050 10051 10055 10056 10056 10054 10049 10045 10042 10041 10045 10051 10053 10051 10048 10049 10055 10061 10063 10065 10068 10066 10065 10064 10061 10060 10063 10065 10067 10071 10074 10077 10083 10087 10087 10088 10089 10090 10093 10096
10112 10102 10101 10114 10114 10102 10107 10120 10109 10087 10086 10094 10092 10085 10081 10080 10078 10076 10078 10085 10089 10086 10081 10076 10073 10072 10069 10066 10065 10066 10066 10065 10063 10062 10061 10061 10063 10063 10059 10055 10050 10045 10042 10040 10038 10036 10034 10035 10038 10039 10040 10040 10035 10029 10027 10026 10028 10032 10035 10032 10029 10032 10038 10042 10043 10046 10048 10047 10046 10045 10043 10042 10043 10045 10047 10050 10053 10058 10064 10069 10070 10072 10074 10075 10077 10081
10098 10087 10088 10100 10100 10088 10094 10102 10084 10065 10072 10081 10079 10077 10075 10069 10066 10063 10063 10069 10072 10071 10067 10061 10057 10056 10053 10050 10050 10050 10050 10050 10048 10047 10047 10046 10047 10046 10042 10039 10035 10031 10028 10026 10022 10020 10020 10020 10022 10022 10024 10027 10023 10015 10012 10012 10011 10012 10013 10013 10012 10016 10020 10023 10024 10026 10027 10027 10028 10027 10025 10025 10025 10025 10025 10028 10031 10037 10045 10050 10053 10056 10059 10060 10061 10065
10082 10075 10078 10086 10083 10076 10082 10083 10061 10049 10063 10069 10065 10067 10066 10058 10056 10055 10052 10053 10053 10051 10050 10047 10043 10042 10039 10036 10035 10035 10035 10035 10032 10031 10031 10030 10030 10029 10026 10023 10020 10017 10015 10011 10006 10005 10005 10005 10005 10005 10007 10009 10007 10001 9998 9998 9994 9989 9990 9994 9997 10000 10004 10006 10006 10007 10008 10009 10010 10010 10010 10009 10010 10009 10008 10008 10010 10015 10023 10030 10034 10038 10041 10044 10045 10047
10065 10065 10068 10068 10066 10065 10071 10067 10045 10037 10051 10058 10054 10055 10052 10045 10044 10042 10038 10037 10036 10034 10035 10033 10030 10029 10026 10022 10021 10021 10021 10020 10017 10015 10016 10015 10014 10013 10011 10008 10006 10003 10000 9996 9991 9989 9989 9989 9989 9989 9990 9990 9989 9985 9983 9982 9977 9970 9970 9976 9981 9985 9989 9991 9989 9988 9991 9992 9991 9992 9993 9993 9995 9995 9994 9993 9993 9995 10001 10008 10014 10019 10024 10027 10027 10029
10047 10056 10055 10048 10052 10057 10055 10047 10032 10028 10042 10050 10045 10040 10036 10033 10032 10029 10023 10021 10021 10021 10021 10018 10016 10015 10013 10010 10008 10006 10006 10006 10003 10001 10002 10001 9999 9997 9996 9993 9991 9988 9984 9981 9977 9975 9974 9974 9973 9973 9973 9972 9971 9970 9969 9967 9961 9955 9955 9960 9965 9967 9970 9973 9972 9972 9974 9974 9972 9972 9974 9976 9979 9981 9981 9980 9978 9978 9982 9987 9992 9998 10006 10010 10010 10011
10032 10046 10038 10028 10039 10049 10042 10030 10020 10020 10032 10038 10032 10025 10023 10021 10019 10016 10012 10009 10008 10008 10006 10003 10001 9999 9997 9996 9994 9991 9991 9991 9989 9987 9987 9986 9984 9983 9981 9978 9975 9973 9970 9966 9964 9963 9961 9958 9957 9957 9958 9957 9955 9954 9954 9951 9947 9943 9943 9947 9950 9950 9951 9954 9957 9958 9959 9957 9956 9956 9958 9960 9963 9964 9965 9966 9965 9963 9965 9969 9972 9978 9986 9992 9992 9992
10021 10030 10020 10012 10024 10037 10033 10021 10011 10010 10019 10022 10018 10014 10012 10007 10003 10003 10002 10000 9998 9996 9993 9990 9988 9985 9982 9980 9978 9977 9977 9977 9975 9974 9973 9972 9970 9967 9964 9961 9960 9958 9956 9954 9952 9950 9947 9945 9943 9941 9941 9941 9940 9939 9940 9939 9936 9933 9933 9933 9933 9932 9933 9936 9938 9941 9942 9939 9938 9940 9941 9942 9945 9946 9948 9951 9952 9951 9951 9954 9955 9959 9967 9973 9974 9974